Huron, SD

8:24 AM CDT on August 30, 2016 (GMT -0500)
Huron Regional

Weather History for KHON - May, 2013

Change the Weather History Date:

Sunday, May 5, 2013

  Actual Average Record
Temperature  
Mean Temperature 46 °F 55 °F  
Max Temperature 51 °F 67 °F 94 °F (2004)
Min Temperature 41 °F 42 °F 24 °F (1954)
Degree Days  
Heating Degree Days 19 11  
Month to date heating degree days 121 58  
Since 1 July heating degree days 8002 7436  
Cooling Degree Days 0 1  
Month to date cooling degree days 0 2  
Year to date cooling degree days 0 6  
Moisture  
Dew Point 41 °F    
Average Humidity 86    
Maximum Humidity 100    
Minimum Humidity 71    
Precipitation  
Precipitation 0.04 in 0.09 in 2.26 in (2007)
Month to date precipitation 0.08 0.46  
Year to date precipitation 5.18 5.33  
Snow  
Snow 0.00 in 0.00 in 1.30 in (1950)
Month to date snowfall 0.0 0.1  
Since 1 July snowfall 60.1 44.0  
Snow Depth 0.00 in    
Sea Level Pressure  
Sea Level Pressure 30.21 in    
Wind  
Wind Speed 7 mph (North)    
Max Wind Speed 14 mph    
Max Gust Speed 25 mph    
Visibility 9 miles    
Events Rain    
T = Trace of Precipitation, MM = Missing Value Source: NWS Daily Summary

Daily Weather History Graph

Daily Weather History Graph

Search for Another Location

Airport or City:

Trip Planner

Search our weather history database for the weather conditions in past years. The results will help you decide how hot, cold, wet, or windy it might be!

Date:

Astronomy

May. 05, 2013 Rise Set
Actual Time 6:17 AM CDT 8:42 PM CDT
Civil Twilight 5:45 AM CDT 9:14 PM CDT
Nautical Twilight 5:04 AM CDT 9:55 PM CDT
Astronomical Twilight 4:19 AM CDT 10:41 PM CDT
Moon 3:58 AM CDT (5/5) 4:34 PM CDT (5/5)
Length of Visible Light 15h 29m
Length of Day
14h 24m
Waning Crescent, 18% of the Moon is Illuminated
May 5
Waning Crescent
May 9
New
May 17
First Quarter
May 24
Full
May 31
Last Quarter

Hourly Weather History & Observations

Time (CDT) Temp. Windchill Dew Point Humidity Pressure Visibility Wind Dir Wind Speed Gust Speed Precip Events Conditions
12:55 AM 42.1 °F 37.1 °F 41.0 °F 96% 30.25 in 9.0 mi NNW 8.1 mph - 0.00 in   Overcast
1:15 AM 42.8 °F 38.0 °F 41.0 °F 93% 30.22 in 9.0 mi NNW 8.1 mph - N/A   Overcast
1:55 AM 42.1 °F 37.1 °F 41.0 °F 96% 30.24 in 7.0 mi NNW 8.1 mph - 0.00 in Rain Light Rain
2:52 AM 42.8 °F 38.6 °F 41.0 °F 93% 30.20 in 7.0 mi North 6.9 mph - 0.01 in Rain Light Rain
2:55 AM 42.1 °F 38.4 °F 41.0 °F 96% 30.23 in 7.0 mi North 5.8 mph - 0.01 in Rain Light Rain
3:02 AM 42.8 °F 38.6 °F 41.0 °F 93% 30.21 in 7.0 mi NNW 6.9 mph - 0.00 in Rain Light Rain
3:55 AM 41.0 °F 35.8 °F 41.0 °F 100% 30.23 in 7.0 mi NNW 8.1 mph - 0.01 in Rain Light Rain
4:55 AM 41.0 °F 35.8 °F 41.0 °F 100% 30.24 in 7.0 mi NNW 8.1 mph - 0.00 in Rain Light Rain
5:55 AM 41.0 °F 34.7 °F 41.0 °F 100% 30.24 in 7.0 mi NNW 10.4 mph - 0.00 in Rain Light Rain
6:55 AM 41.0 °F 34.7 °F 41.0 °F 100% 30.24 in 5.0 mi North 10.4 mph - 0.01 in Rain Light Rain
7:35 AM 41.0 °F 35.2 °F 41.0 °F 100% 30.21 in 9.0 mi North 9.2 mph - 0.01 in   Overcast
7:55 AM 41.0 °F 35.8 °F 41.0 °F 100% 30.25 in 9.0 mi North 8.1 mph - 0.01 in   Overcast
8:55 AM 42.1 °F 36.1 °F 41.0 °F 96% 30.25 in 8.0 mi North 10.4 mph - 0.00 in Rain Light Rain
9:47 AM 42.8 °F 36.2 °F 39.2 °F 87% 30.22 in 10.0 mi North 12.7 mph - 0.00 in   Overcast
9:55 AM 43.0 °F 37.2 °F 41.0 °F 93% 30.25 in 10.0 mi North 10.4 mph - 0.00 in   Overcast
10:55 AM 44.1 °F 38.1 °F 42.1 °F 93% 30.25 in 7.0 mi North 11.5 mph - N/A   Overcast
11:55 AM 44.1 °F 38.1 °F 41.0 °F 89% 30.25 in 10.0 mi North 11.5 mph - N/A   Overcast
12:55 PM 46.4 °F 41.9 °F 41.0 °F 81% 30.22 in 10.0 mi NNE 9.2 mph - N/A   Overcast
1:55 PM 46.0 °F 41.4 °F 41.0 °F 83% 30.23 in 10.0 mi North 9.2 mph - N/A   Overcast
2:55 PM 46.9 °F - 41.0 °F 80% 30.22 in 10.0 mi North 11.5 mph - N/A   Overcast
3:02 PM 46.4 °F 42.4 °F 41.0 °F 81% 30.19 in 10.0 mi North 8.1 mph - N/A   Overcast
3:39 PM 48.2 °F - 41.0 °F 76% 30.18 in 10.0 mi North 9.2 mph - N/A   Overcast
3:55 PM 48.0 °F - 41.0 °F 77% 30.20 in 10.0 mi North 5.8 mph - N/A   Overcast
4:55 PM 48.9 °F - 41.0 °F 74% 30.19 in 10.0 mi North 4.6 mph - N/A   Overcast
5:55 PM 50.0 °F - 41.0 °F 71% 30.17 in 10.0 mi North 8.1 mph - N/A   Overcast
6:55 PM 48.9 °F - 41.0 °F 74% 30.17 in 10.0 mi North 4.6 mph - N/A   Overcast
7:55 PM 48.9 °F - 41.0 °F 74% 30.16 in 10.0 mi NNE 3.5 mph - N/A   Overcast
8:03 PM 50.0 °F - 41.0 °F 71% 30.13 in 10.0 mi NNE 4.6 mph - N/A   Overcast
8:55 PM 48.0 °F - 42.1 °F 80% 30.16 in 10.0 mi Calm Calm - N/A   Overcast
9:55 PM 46.9 °F - 42.1 °F 83% 30.17 in 10.0 mi Calm Calm - N/A   Overcast
10:55 PM 46.9 °F - 42.1 °F 83% 30.17 in 10.0 mi Calm Calm - N/A   Overcast
11:55 PM 46.9 °F - 42.1 °F 83% 30.17 in 10.0 mi Calm Calm - N/A   Overcast